Regional Weather Roundup
Issued by NWS

Home | Current Version | Previous Version | Text Only | Print | Product List | Glossary Off
Versions: 1 2 3 4 5 6 7 8 9 10 11 12 13 14 15 16 17 18 19 20 21 22 23 24 25 26 27 28 29 30 31 32 33 34 35 36 37 38 39 40 41 42 43 44 45 46 47 48 49 50

000
ASUS43 KTOP 192059
RWRKS

WEATHER ROUNDUP FOR KANSAS
NATIONAL WEATHER SERVICE GOODLAND KS
400 PM CDT SUN APR 19 2015

NOTE:  "FAIR" INDICATES FEW OR NO CLOUDS BELOW 12,000 FEET WITH NO
SIGNIFICANT WEATHER AND/OR OBSTRUCTIONS TO VISIBILITY.

KSZ001>006-013>018-027>032-041>047-192200-
NORTHWEST KANSAS

CITY           SKY/WX    TMP DP  RH WIND       PRES   REMARKS
GOODLAND       CLOUDY    50  25  37 N26G36    30.00F
HAYS           CLOUDY    52  28  40 N26G32    29.91F
HILL CITY      CLOUDY    55  28  35 NW23G35   29.92F
RUSSELL        CLOUDY    53  35  50 N24G30    29.88F
$$

KSZ061>065-074>080-084>089-192200-
SOUTHWEST KANSAS

CITY           SKY/WX    TMP DP  RH WIND       PRES   REMARKS
DODGE CITY     PTSUNNY   56  34  43 N25G39    29.92F
ELKHART          N/A    N/A N/A N/A MISG        N/A
GARDEN CITY    PTSUNNY   55  27  34 N31G46    29.94F
GREAT BEND     CLOUDY    52  37  58 N21G29    29.89F
LIBERAL        PTSUNNY   59  36  41 N29G38    29.97F
$$

KSZ066>073-081>083-090>101-192200-
SOUTHEAST KANSAS

CITY           SKY/WX    TMP DP  RH WIND       PRES   REMARKS
CHANUTE        MOSUNNY   69  54  58 W10       29.64F
COFFEYVILLE    MOSUNNY   67  54  63 NW10      29.66F
HUTCHINSON     CLOUDY    53  38  56 N24G38    29.83R
MEDICINE LODGE   N/A     51  40  65 N31G47    29.85R
NEWTON         CLOUDY    54  37  54 N35G48    29.79F
PARSONS        MOSUNNY   68  55  63 W9        29.66F
WICHITA INTL   LGT RAIN  53  44  71 N33G49    29.80R
WICHITA JABRA  CLOUDY    54  44  69 N31G43    29.78R
WICHITA MCCONL DRIZZLE   52  46  82 N30G37    29.78R
WINFIELD       CLOUDY    56  50  80 NW31G46   29.76R THUNDER
$$

KSZ007>012-019>026-033>040-048>060-102>105-192200-
NORTHEAST KANSAS

CITY           SKY/WX    TMP DP  RH WIND       PRES   REMARKS
CONCORDIA      CLOUDY    52  35  52 N25G37    29.83F
EMPORIA        CLOUDY    54  49  83 NW23G37   29.72R
LAWRENCE       CLOUDY    60  51  72 NW28G36   29.66S
MANHATTAN      CLOUDY    52  42  69 N12G25    29.78R
OLATHE IND     LGT RAIN  62  53  72 NW21      29.64F
OLATHE EXE     LGT RAIN  63  53  70 N15G21    29.62F
SALINA         CLOUDY    53  37  54 NW30G38   29.83F
TOPEKA BILLARD CLOUDY    57  49  74 NW20G26   29.70R
TOPEKA FORBES  CLOUDY    57  49  74 NW24G32   29.69R
$$



USA.gov is the U.S. government's official web portal to all federal, state and local government web resources and services.